Location: Banff
(51.1667°N, 115.5667°W)
Time: 06:56:32
(UTC+00:00)

S-56A Canister/Altair - Pass Details

Date: 02 December 2020
Orbit: 633 x 2499 km, 38.9° (Epoch: 21 January)

Event Time Altitude Azimuth Distance (km) Brightness Sun altitude
Rises 23:55:57 0° 190° (S) 6,058 12.8 -3.2°
Reaches altitude 10° 00:02:38 10° 171° (S) 4,816 11.9 -4.1°
Maximum altitude 00:08:47 15° 143° (SE) 4,107 11.2 -4.9°
Drops below altitude 10° 00:14:11 10° 114° (ESE) 4,137 10.9 -5.7°
Enters shadow 00:18:56 - 93° (E) 4,727 11.0 -6.3°
Sets 00:19:03 0° 93° (E) 4,748 - -6.3°
